Location: Austin
(30.3000°N, 97.7500°W)
Time: 23:07:37
(UTC-05:00)

Cosmos 1844 - Pass Details

Date: 08 April 2026
Orbit: 820 x 867 km, 70.9° (Epoch: 20 April)

Event Time Altitude Azimuth Distance (km) Brightness Sun altitude
Rises 21:43:57 0° 336° (NNW) 3,444 7.6 -23.4°
Reaches altitude 10° 21:46:26 10° 333° (NNW) 2,508 6.8 -23.9°
Maximum altitude 21:52:08 63° 254° (WSW) 962 4.1 -25.0°
Enters shadow 21:54:31 35° 186° (S) 1,366 4.6 -25.5°
